�v������,���r���O(���x),�����t���O,���r���O(���x),�����t���O,��1(���x),�����t���O,��2���x),�����t���O,�������x,�����t���O,�C�ۑ�(���x),�����t���O,�C�ۑ�(���x),�����t���O
6/1/2004 0:00,27.7,0,62.2,0,26.2,0,30,0,22.9,0,19,0,84.8,0
6/1/2004 0:15,27.7,0,62.9,0,26,0,29.9,0,22.9,0,18.7,0,86.3,0
6/1/2004 0:30,27.6,0,62.8,0,25.8,0,29.8,0,23,0,18.3,0,87.8,0
6/1/2004 0:45,27.5,0,63,0,25.5,0,29.7,0,21.9,0,18,0,89.3,0
6/1/2004 1:00,27.5,0,63.6,0,25.3,0,29.6,0,21.9,0,17.7,0,90.8,0
6/1/2004 1:15,27.4,0,63.2,0,25.4,0,29.4,0,22,0,17.6,0,90.8,0
6/1/2004 1:30,27.3,0,62.9,0,25.7,0,29.3,0,22,0,17.5,0,90.8,0
6/1/2004 1:45,27.3,0,63.9,0,25.9,0,29.3,0,22.3,0,17.4,0,90.8,0
6/1/2004 2:00,27.2,0,64.5,0,26,0,29.1,0,22.4,0,17.3,0,90.8,0
6/1/2004 2:15,27.1,0,65.1,0,26.2,0,29.1,0,22.4,0,17.3,0,91.1,0
6/1/2004 2:30,27.1,0,65.7,0,26.3,0,29,0,22.4,0,17.2,0,91.3,0
6/1/2004 2:45,27,0,66,0,26.4,0,28.9,0,22.5,0,17.2,0,91.6,0
6/1/2004 3:00,26.9,0,66.3,0,26.5,0,28.8,0,22.5,0,17.2,0,91.8,0
6/1/2004 3:15,26.8,0,66.4,0,26.5,0,28.7,0,22.6,0,17.2,0,91.8,0
6/1/2004 3:30,26.7,0,66.6,0,26.6,0,28.6,0,22.7,0,17.2,0,91.8,0
6/1/2004 3:45,26.7,0,66.8,0,26.7,0,28.5,0,22.7,0,17.2,0,91.8,0
6/1/2004 4:00,26.6,0,66.9,0,26.7,0,28.4,0,22.8,0,17.2,0,91.8,0
6/1/2004 4:15,26.5,0,67,0,26.7,0,28.3,0,22.8,0,17.2,0,92.1,0
6/1/2004 4:30,26.4,0,67.2,0,26.8,0,28.2,0,22.9,0,17.2,0,92.3,0
6/1/2004 4:45,26.3,0,67.2,0,26.8,0,28.1,0,22.9,0,17.2,0,92.6,0
6/1/2004 5:00,26.2,0,67.5,0,26.8,0,28,0,22.9,0,17.2,0,92.8,0
6/1/2004 5:15,26.1,0,67.4,0,26.8,0,28,0,23,0,17.2,0,93.1,0
6/1/2004 5:30,26,0,67.5,0,26.8,0,27.9,0,23,0,17.2,0,93.3,0
6/1/2004 5:45,25.9,0,67.6,0,26.8,0,27.8,0,23.1,0,17.3,0,93.6,0
6/1/2004 6:00,25.9,0,67.6,0,26.8,0,27.7,0,22.3,0,17.3,0,93.8,0
6/1/2004 6:15,25.8,0,68.2,0,26.7,0,27.6,0,22.3,0,17.1,0,93.6,0
6/1/2004 6:30,25.7,0,68.5,0,26.7,0,27.5,0,22.4,0,17,0,93.3,0
6/1/2004 6:45,25.7,0,68.7,0,26.7,0,27.5,0,22.4,0,16.8,0,93.1,0
6/1/2004 7:00,25.6,0,68.8,0,26.7,0,27.4,0,22.5,0,16.7,0,92.8,0
6/1/2004 7:15,25.8,0,68.5,0,26.6,0,27.3,0,22,0,16.7,0,92.8,0
6/1/2004 7:30,25.9,0,69.5,0,26.5,0,27.2,0,22,0,16.6,0,92.8,0
6/1/2004 7:45,25.6,0,69,0,26.4,0,27.2,0,22.1,0,16.6,0,92.8,0
6/1/2004 8:00,25.6,0,69.1,0,26.3,0,27.1,0,22.1,0,16.6,0,92.8,0
6/1/2004 8:15,25.8,0,69.2,0,26.2,0,27,0,22.2,0,16.6,0,92.8,0
6/1/2004 8:30,25.6,0,69.3,0,26.2,0,27,0,22.1,0,16.6,0,92.8,0
6/1/2004 8:45,25.4,0,69.3,0,26.1,0,26.9,0,22.1,0,16.6,0,92.8,0
6/1/2004 9:00,25.3,0,68.9,0,26,0,26.8,0,22.2,0,16.6,0,92.8,0
6/1/2004 9:15,25.3,0,69.1,0,25.9,0,26.7,0,22.2,0,16.5,0,92.8,0
6/1/2004 9:30,25.3,0,69,0,25.8,0,26.7,0,22,0,16.3,0,92.8,0
6/1/2004 9:45,25.3,0,69,0,25.7,0,26.6,0,22,0,16.2,0,92.8,0
6/1/2004 10:00,25.3,0,69.2,0,25.7,0,26.5,0,22.1,0,16.1,0,92.8,0
6/1/2004 10:15,25.3,0,69.4,0,25.6,0,26.4,0,22.1,0,16,0,92.6,0
6/1/2004 10:30,25.1,0,69.4,0,25.5,0,26.4,0,22,0,15.9,0,92.3,0
6/1/2004 10:45,24.9,0,69.2,0,25.5,0,26.3,0,22,0,15.8,0,92.1,0
6/1/2004 11:00,24.8,0,69,0,25.4,0,26.2,0,22.1,0,15.7,0,91.8,0
6/1/2004 11:15,24.7,0,69.2,0,25.3,0,26.2,0,22.1,0,15.6,0,91.8,0
6/1/2004 11:30,24.7,0,68.6,0,25.3,0,26.1,0,22.1,0,15.6,0,91.8,0
6/1/2004 11:45,24.7,0,68.1,0,25.2,0,26,0,22.1,0,15.5,0,91.8,0
6/1/2004 12:00,24.6,0,67.9,0,25.2,0,26,0,22.2,0,15.5,0,91.8,0
6/1/2004 12:15,24.5,0,68.1,0,25.1,0,25.9,0,22.2,0,15.5,0,91.3,0
6/1/2004 12:30,24.5,0,68.2,0,25.1,0,25.9,0,22.3,0,15.4,0,90.8,0
6/1/2004 12:45,24.5,0,68.2,0,25,0,25.8,0,22.3,0,15.4,0,90.3,0
6/1/2004 13:00,24.4,0,68.2,0,25,0,25.8,0,22,0,15.4,0,89.8,0
6/1/2004 13:15,24.5,0,68.1,0,25,0,25.7,0,22,0,15.5,0,88.8,0
6/1/2004 13:30,24.5,0,67.6,0,25,0,25.7,0,21.7,0,15.6,0,87.8,0
6/1/2004 13:45,24.6,0,67.1,0,25.1,0,25.7,0,21.8,0,15.8,0,86.8,0
6/1/2004 14:00,24.8,0,67.6,0,25.2,0,25.7,0,21.8,0,15.9,0,85.8,0
6/1/2004 14:15,24.8,0,67.4,0,25.2,0,25.8,0,21.8,0,16.4,0,84.8,0
6/1/2004 14:30,24.8,0,67.2,0,25.3,0,25.8,0,21.8,0,16.8,0,83.8,0
6/1/2004 14:45,24.9,0,68.2,0,25.3,0,25.8,0,21.8,0,17.3,0,82.8,0
6/1/2004 15:00,24.9,0,67.9,0,25.4,0,25.8,0,22,0,17.8,0,81.8,0
6/1/2004 15:15,24.5,0,66.1,0,25.5,0,25.8,0,22,0,17.8,0,81.1,0
6/1/2004 15:30,24.8,0,65.3,0,25.6,0,25.9,0,22,0,17.8,0,80.3,0
6/1/2004 15:45,24.3,0,65.1,0,25.6,0,25.9,0,21.9,0,17.8,0,79.6,0
6/1/2004 16:00,25,0,64.4,0,25.6,0,25.9,0,21.9,0,17.8,0,78.8,0
6/1/2004 16:15,25.2,0,64.9,0,25.6,0,25.9,0,21.8,0,17.8,0,78.8,0
6/1/2004 16:30,25.4,0,65.6,0,25.6,0,25.9,0,21.8,0,17.8,0,78.8,0
6/1/2004 16:45,25.4,0,66.7,0,25.6,0,25.9,0,21.8,0,17.8,0,78.8,0
6/1/2004 17:00,25.1,0,67,0,25.6,0,25.9,0,21.9,0,17.8,0,78.8,0
6/1/2004 17:15,25.5,0,68,0,25.6,0,25.9,0,22,0,17.7,0,79.3,0
6/1/2004 17:30,25.4,0,69.8,0,25.6,0,25.9,0,21.9,0,17.7,0,79.8,0
6/1/2004 17:45,25.2,0,69.3,0,25.6,0,25.9,0,21.9,0,17.6,0,80.3,0
6/1/2004 18:00,25.3,0,69.2,0,25.7,0,25.9,0,22,0,17.6,0,80.8,0
6/1/2004 18:15,25.7,0,70.3,0,25.6,0,25.9,0,22,0,17.5,0,81.1,0
6/1/2004 18:30,25.5,0,71.8,0,25.6,0,25.9,0,22,0,17.3,0,81.3,0
6/1/2004 18:45,25.7,0,72.3,0,25.5,0,25.8,0,22.1,0,17.2,0,81.6,0
6/1/2004 19:00,25.9,0,74.7,0,25.5,0,25.8,0,21.7,0,17.1,0,81.8,0
6/1/2004 19:15,26.3,0,81.7,0,25.4,0,25.8,0,21.8,0,17,0,81.6,0
6/1/2004 19:30,26.3,0,83,0,25.4,0,25.7,0,21.8,0,16.9,0,81.3,0
6/1/2004 19:45,26.8,0,84.1,0,25.3,0,25.7,0,21.9,0,16.8,0,81.1,0
6/1/2004 20:00,26.9,0,85.9,0,25.3,0,25.7,0,21.9,0,16.7,0,80.8,0
6/1/2004 20:15,26.8,0,84.7,0,25.2,0,25.6,0,22,0,16.6,0,81.1,0
6/1/2004 20:30,26.7,0,83.9,0,25.2,0,25.6,0,22,0,16.5,0,81.3,0
6/1/2004 20:45,26.7,0,82.6,0,25.1,0,25.5,0,22,0,16.5,0,81.6,0
6/1/2004 21:00,26.2,0,80.9,0,25,0,25.5,0,22.1,0,16.4,0,81.8,0
6/1/2004 21:15,25.5,0,75.8,0,25,0,25.4,0,21.9,0,16.3,0,82.6,0
6/1/2004 21:30,25.7,0,75.3,0,24.9,0,25.4,0,21.9,0,16.2,0,83.3,0
6/1/2004 21:45,25.9,0,77.1,0,24.9,0,25.3,0,21.9,0,16.2,0,84.1,0
6/1/2004 22:00,26.2,0,78.7,0,24.8,0,25.3,0,22,0,16.1,0,84.8,0
6/1/2004 22:15,26.3,0,78.3,0,24.8,0,25.2,0,22,0,16,0,84.3,0
6/1/2004 22:30,26.3,0,77.4,0,24.7,0,25.1,0,22.1,0,15.8,0,83.8,0
6/1/2004 22:45,26.3,0,76.8,0,24.6,0,25,0,22,0,15.7,0,83.3,0
6/1/2004 23:00,26.4,0,77.1,0,24.6,0,25,0,22,0,15.6,0,82.8,0
6/1/2004 23:15,26.5,0,76.6,0,24.5,0,24.9,0,21.9,0,15.4,0,83.8,0
6/1/2004 23:30,26.6,0,75.1,0,24.5,0,24.9,0,21.6,0,15.2,0,84.8,0
6/1/2004 23:45,26.5,0,73.3,0,24.4,0,24.8,0,21.6,0,15,0,85.8,0
6/2/2004 0:00,26.4,0,72.8,0,24.4,0,24.8,0,21.7,0,14.8,0,86.8,0
6/2/2004 0:15,26.2,0,72.7,0,24.4,0,24.7,0,21.7,0,14.6,0,86.8,0
6/2/2004 0:30,26.1,0,72.7,0,24.4,0,24.6,0,21.7,0,14.5,0,86.8,0
6/2/2004 0:45,26,0,72.6,0,24.4,0,24.6,0,21.8,0,14.3,0,86.8,0
6/2/2004 1:00,25.9,0,72.6,0,24.4,0,24.5,0,21.7,0,14.2,0,86.8,0
6/2/2004 1:15,25.3,0,72.2,0,24.4,0,24.5,0,21.4,0,14.2,0,86.3,0
6/2/2004 1:30,25.1,0,71.7,0,24.4,0,24.4,0,21.5,0,14.2,0,85.8,0
6/2/2004 1:45,24.9,0,71.4,0,24.4,0,24.4,0,21.5,0,14.2,0,85.3,0
6/2/2004 2:00,24.8,0,71.3,0,24.4,0,24.4,0,21.6,0,14.2,0,84.8,0
6/2/2004 2:15,24.6,0,71.1,0,24.3,0,24.3,0,21.4,0,14.3,0,84.1,0
6/2/2004 2:30,24.4,0,70.9,0,24.3,0,24.3,0,21.4,0,14.4,0,83.3,0
6/2/2004 2:45,24.3,0,70.7,0,24.3,0,24.2,0,21.4,0,14.6,0,82.6,0
6/2/2004 3:00,24.2,0,70.7,0,24.3,0,24.1,0,21.5,0,14.7,0,81.8,0
6/2/2004 3:15,24.1,0,70.6,0,24.3,0,24.1,0,21.2,0,14.7,0,82.3,0
6/2/2004 3:30,24,0,70.6,0,24.2,0,24,0,21.3,0,14.7,0,82.8,0
6/2/2004 3:45,23.9,0,70.6,0,24.2,0,23.9,0,21.3,0,14.7,0,83.3,0
6/2/2004 4:00,23.7,0,70.6,0,24.2,0,23.9,0,21.3,0,14.7,0,83.8,0
6/2/2004 4:15,23.7,0,70.5,0,24.1,0,23.8,0,21.4,0,14.7,0,84.8,0
6/2/2004 4:30,23.6,0,70.5,0,24.1,0,23.7,0,21.4,0,14.8,0,85.8,0
6/2/2004 4:45,23.5,0,70.5,0,24.1,0,23.7,0,21.4,0,14.8,0,86.8,0
6/2/2004 5:00,23.4,0,70.5,0,24,0,23.6,0,21.4,0,14.9,0,87.8,0
6/2/2004 5:15,23.3,0,70.5,0,24,0,23.6,0,21.3,0,14.9,0,88.8,0
6/2/2004 5:30,23.3,0,70.4,0,24,0,23.5,0,21.3,0,14.9,0,89.8,0
6/2/2004 5:45,23.2,0,70.4,0,24,0,23.5,0,21,0,14.9,0,90.8,0
6/2/2004 6:00,23.2,0,70.4,0,24.1,0,23.5,0,21.3,0,14.9,0,91.8,0
6/2/2004 6:15,23.1,0,70.5,0,24.1,0,23.4,0,21.4,0,15.4,0,89.6,0
6/2/2004 6:30,23.2,0,70.4,0,24.2,0,23.4,0,21.2,0,16,0,87.3,0
6/2/2004 6:45,23.5,0,70.5,0,24.3,0,23.4,0,21.2,0,16.5,0,85.1,0
6/2/2004 7:00,23.8,0,71.6,0,24.3,0,23.4,0,21.3,0,17.1,0,82.8,0
6/2/2004 7:15,24.7,0,71.5,0,24.4,0,23.5,0,21.3,0,17.6,0,77.6,0
6/2/2004 7:30,25.1,0,71,0,24.5,0,23.5,0,21.5,0,18.2,0,72.3,0
6/2/2004 7:45,24.9,0,70.7,0,24.5,0,23.6,0,21.5,0,18.7,0,67.1,0
6/2/2004 8:00,24.9,0,70.4,0,24.7,0,23.8,0,21.5,0,19.3,0,61.8,0
6/2/2004 8:15,25.1,0,69.7,0,24.9,0,23.9,0,21.8,0,19.4,0,59.8,0
6/2/2004 8:30,25.1,0,69.3,0,25.1,0,24,0,21.6,0,19.4,0,57.8,0
6/2/2004 8:45,25.6,0,67.7,0,25.2,0,24.1,0,21.6,0,19.5,0,55.8,0
6/2/2004 9:00,24.7,0,68.3,0,25,0,24.2,0,21.6,0,19.6,0,53.8,0
6/2/2004 9:15,24.3,0,67.1,0,24.9,0,24.2,0,21.5,0,19.7,0,54.8,0
6/2/2004 9:30,24.6,0,65,0,24.9,0,24.2,0,21.5,0,19.9,0,55.8,0
6/2/2004 9:45,24.2,0,64.9,0,24.9,0,24.3,0,21.6,0,20,0,56.8,0
6/2/2004 10:00,24.4,0,62.8,0,24.9,0,24.4,0,21.6,0,20.2,0,57.8,0
6/2/2004 10:15,24.6,0,60.2,0,25,0,24.4,0,21.6,0,20.7,0,55,0
6/2/2004 10:30,25,0,58,0,25,0,24.5,0,21.6,0,21.1,0,52.3,0
6/2/2004 10:45,24.7,0,58.9,0,25,0,24.6,0,21.8,0,21.6,0,49.5,0
6/2/2004 11:00,24.8,0,56.5,0,25,0,24.7,0,21.8,0,22.1,0,46.8,0
6/2/2004 11:15,24.9,0,55.1,0,25,0,24.8,0,21.8,0,22.4,0,45.3,0
6/2/2004 11:30,25.6,0,53.1,0,25,0,24.9,0,21.8,0,22.6,0,43.8,0
6/2/2004 11:45,25.9,0,54.1,0,25,0,25,0,21.9,0,22.9,0,42.3,0
6/2/2004 12:00,25.5,0,55.7,0,25,0,25.1,0,21.9,0,23.2,0,40.8,0
6/2/2004 12:15,25.4,0,56,0,25,0,25.1,0,21.4,0,23.4,0,39.3,0
6/2/2004 12:30,25.5,0,54.9,0,25,0,25.2,0,21.4,0,23.7,0,37.8,0
6/2/2004 12:45,25.5,0,54.7,0,25.2,0,25.3,0,21.7,0,23.9,0,36.3,0
6/2/2004 13:00,25.5,0,54.4,0,25.2,0,25.4,0,21.9,0,24.2,0,34.8,0
6/2/2004 13:15,25.5,0,54,0,25.2,0,25.6,0,21.9,0,24.2,0,35.3,0
6/2/2004 13:30,25.5,0,52.9,0,25.2,0,25.7,0,21.9,0,24.2,0,35.8,0
6/2/2004 13:45,25.5,0,52.2,0,25.2,0,25.8,0,21.9,0,24.3,0,36.3,0
6/2/2004 14:00,25.9,0,50.3,0,25.2,0,25.9,0,21.5,0,24.3,0,36.8,0
6/2/2004 14:15,25.9,0,50.3,0,25.2,0,25.9,0,21.5,0,24.2,0,37.5,0
6/2/2004 14:30,27,0,46.2,0,26,0,26.3,0,21.7,0,24.1,0,38.3,0
6/2/2004 14:45,28.2,0,47,0,25.8,0,26.1,0,21.7,0,24.1,0,39,0
6/2/2004 15:00,28.6,0,47,0,25.8,0,26,0,21.7,0,24,0,39.8,0
6/2/2004 15:15,28.7,0,41,0,25.8,0,26,0,21.5,0,23.9,0,39.5,0
6/2/2004 15:30,28.4,0,40.7,0,25.8,0,26,0,21.6,0,23.7,0,39.3,0
6/2/2004 15:45,28.1,0,39.9,0,25.8,0,26,0,21.6,0,23.6,0,39,0
6/2/2004 16:00,27.9,0,39.4,0,25.8,0,26,0,21.7,0,23.5,0,38.8,0
6/2/2004 16:15,27.7,0,40.2,0,25.8,0,26,0,21.7,0,23.2,0,38,0
6/2/2004 16:30,27.5,0,39.4,0,25.8,0,26,0,21.5,0,23,0,37.3,0
6/2/2004 16:45,27.4,0,40.5,0,25.7,0,26,0,21.5,0,22.7,0,36.5,0
6/2/2004 17:00,27.5,0,43.3,0,25.8,0,26,0,21.9,0,22.5,0,35.8,0
6/2/2004 17:15,27.7,0,45.5,0,25.9,0,26,0,21.9,0,22.1,0,39.5,0
6/2/2004 17:30,27.6,0,45.6,0,25.9,0,26.1,0,22,0,21.6,0,43.3,0
6/2/2004 17:45,27.4,0,45.4,0,26,0,26.1,0,22,0,21.2,0,47,0
6/2/2004 18:00,27.3,0,49.3,0,26.1,0,26.1,0,21.8,0,20.8,0,50.8,0
6/2/2004 18:15,27.5,0,52.9,0,26.1,0,26.1,0,21.9,0,20.4,0,49,0
6/2/2004 18:30,27.1,0,49.1,0,26.2,0,26.2,0,21.9,0,20,0,47.3,0
6/2/2004 18:45,27.3,0,53.7,0,26.2,0,26.2,0,22,0,19.7,0,45.5,0
6/2/2004 19:00,27.2,0,51.4,0,26.1,0,26.1,0,21.9,0,19.3,0,43.8,0
6/2/2004 19:15,27.2,0,54.9,0,26,0,26.1,0,21.9,0,19,0,47,0
6/2/2004 19:30,27.3,0,59.2,0,26,0,26,0,22,0,18.7,0,50.3,0
6/2/2004 19:45,27.6,0,70.6,0,25.9,0,26,0,22,0,18.4,0,53.5,0
6/2/2004 20:00,27.7,0,68.4,0,25.9,0,25.9,0,22.1,0,18.1,0,56.8,0
6/2/2004 20:15,27.3,0,56.8,0,25.8,0,25.9,0,22.1,0,17.9,0,60.6,0
6/2/2004 20:30,27.4,0,60.5,0,25.8,0,25.9,0,22.2,0,17.7,0,64.3,0
6/2/2004 20:45,27.4,0,62.1,0,25.8,0,25.8,0,22.2,0,17.5,0,68.1,0
6/2/2004 21:00,27.3,0,56.6,0,25.7,0,25.7,0,22.2,0,17.3,0,71.8,0
6/2/2004 21:15,27,0,57.2,0,25.7,0,25.7,0,21.8,0,17.3,0,72.3,0
6/2/2004 21:30,26.8,0,57.1,0,25.8,0,25.6,0,21.9,0,17.3,0,72.8,0
6/2/2004 21:45,26.9,0,57.5,0,25.7,0,25.5,0,21.9,0,17.3,0,73.3,0
6/2/2004 22:00,26.9,0,56.8,0,25.7,0,25.5,0,22,0,17.3,0,73.8,0
6/2/2004 22:15,26.8,0,56.4,0,25.7,0,25.4,0,21.7,0,17.4,0,73.8,0
6/2/2004 22:30,26.7,0,56.3,0,25.6,0,25.3,0,21.8,0,17.5,0,73.8,0
6/2/2004 22:45,26.6,0,56.4,0,25.6,0,25.3,0,21.8,0,17.6,0,73.8,0
6/2/2004 23:00,26.6,0,57.6,0,25.5,0,25.2,0,21.6,0,17.7,0,73.8,0
6/2/2004 23:15,26.5,0,57.7,0,25.5,0,25.1,0,21.6,0,17.7,0,73.3,0
6/2/2004 23:30,26.5,0,57.7,0,25.4,0,25,0,21.7,0,17.7,0,72.8,0
6/2/2004 23:45,26.4,0,57.6,0,25.3,0,25,0,21.7,0,17.8,0,72.3,0
6/3/2004 0:00,26.6,0,60.8,0,25.3,0,24.9,0,21.7,0,17.8,0,71.8,0
6/3/2004 0:15,26.5,0,60,0,25.2,0,24.8,0,21.7,0,17.6,0,72.8,0
6/3/2004 0:30,26.4,0,59.8,0,25.1,0,24.7,0,21.7,0,17.5,0,73.8,0
6/3/2004 0:45,26.4,0,61.2,0,25.1,0,24.7,0,21.8,0,17.3,0,74.8,0
6/3/2004 1:00,26.2,0,59.3,0,25,0,24.6,0,21.6,0,17.2,0,75.8,0
6/3/2004 1:15,25.9,0,59.2,0,25,0,24.6,0,21.7,0,17.1,0,76.8,0
6/3/2004 1:30,25.8,0,59.4,0,25,0,24.5,0,21.7,0,16.9,0,77.8,0
6/3/2004 1:45,25.6,0,59.7,0,25,0,24.5,0,21.6,0,16.8,0,78.8,0
6/3/2004 2:00,25.4,0,59.9,0,25,0,24.5,0,21.6,0,16.7,0,79.8,0
6/3/2004 2:15,25.3,0,60.1,0,25,0,24.4,0,21.6,0,16.6,0,79.3,0
6/3/2004 2:30,25.2,0,60.4,0,25,0,24.3,0,21.6,0,16.6,0,78.8,0
6/3/2004 2:45,25,0,60.5,0,25,0,24.3,0,21.6,0,16.5,0,78.3,0
6/3/2004 3:00,24.9,0,60.6,0,25,0,24.2,0,21.7,0,16.5,0,77.8,0
6/3/2004 3:15,24.8,0,60.8,0,25,0,24.2,0,21.7,0,16.5,0,77.3,0
6/3/2004 3:30,24.7,0,60.9,0,25,0,24.1,0,21.7,0,16.5,0,76.8,0
6/3/2004 3:45,24.6,0,61.1,0,24.9,0,24.1,0,21.7,0,16.6,0,76.3,0
6/3/2004 4:00,24.5,0,61.1,0,24.9,0,24,0,21.3,0,16.6,0,75.8,0
6/3/2004 4:15,24.4,0,61.1,0,24.9,0,23.9,0,21.3,0,16.7,0,74.3,0
6/3/2004 4:30,24.3,0,61,0,24.9,0,23.9,0,21.3,0,16.8,0,72.8,0
6/3/2004 4:45,24.2,0,61.1,0,24.8,0,23.8,0,21.4,0,16.9,0,71.3,0
6/3/2004 5:00,24.1,0,61.2,0,24.8,0,23.7,0,21.4,0,17,0,69.8,0
6/3/2004 5:15,24,0,61.3,0,24.8,0,23.7,0,21.4,0,17,0,69.3,0
6/3/2004 5:30,24,0,61.3,0,24.8,0,23.6,0,21.4,0,17,0,68.8,0
6/3/2004 5:45,23.9,0,61.3,0,24.7,0,23.6,0,21.4,0,17.1,0,68.3,0
6/3/2004 6:00,23.8,0,61,0,24.7,0,23.5,0,21.4,0,17.1,0,67.8,0
6/3/2004 6:15,23.7,0,60.7,0,24.7,0,23.5,0,21,0,17.3,0,66.8,0
6/3/2004 6:30,23.7,0,60.9,0,24.7,0,23.4,0,21,0,17.6,0,65.8,0
6/3/2004 6:45,24.5,0,60.7,0,24.8,0,23.4,0,21,0,17.8,0,64.8,0
6/3/2004 7:00,25.5,0,61.4,0,25,0,23.4,0,21.1,0,18.1,0,63.8,0
6/3/2004 7:15,26.1,0,62.8,0,25.1,0,23.5,0,21.1,0,18.6,0,61.3,0
6/3/2004 7:30,26.1,0,59.5,0,25.1,0,23.6,0,21.6,0,19.1,0,58.8,0
6/3/2004 7:45,26.1,0,60,0,25.1,0,23.7,0,21.6,0,19.6,0,56.3,0
6/3/2004 8:00,26,0,59.3,0,25.2,0,23.8,0,21.6,0,20.1,0,53.8,0
6/3/2004 8:15,26.2,0,58.3,0,25.3,0,24,0,21.6,0,20.5,0,51.3,0
6/3/2004 8:30,26.1,0,56.6,0,25.4,0,24.1,0,21.5,0,20.9,0,48.8,0
6/3/2004 8:45,26.2,0,56.3,0,25.5,0,24.2,0,21.5,0,21.3,0,46.3,0
6/3/2004 9:00,26.5,0,55.2,0,25.6,0,24.3,0,21.6,0,21.7,0,43.8,0
6/3/2004 9:15,26.4,0,55.6,0,25.7,0,24.5,0,21.5,0,21.9,0,42,0
6/3/2004 9:30,26.5,0,55.1,0,25.8,0,24.6,0,21.5,0,22.2,0,40.3,0
6/3/2004 9:45,26.7,0,54.6,0,26,0,24.8,0,21.5,0,22.4,0,38.5,0
6/3/2004 10:00,26.6,0,43.9,0,26.2,0,24.9,0,21.6,0,22.7,0,36.8,0
6/3/2004 10:15,26.4,0,41.1,0,26.4,0,25.1,0,21.9,0,22.9,0,35.5,0
6/3/2004 10:30,26.4,0,40,0,26.1,0,25.2,0,21.9,0,23.1,0,34.3,0
6/3/2004 10:45,26.4,0,36.7,0,25.9,0,25.2,0,21.8,0,23.4,0,33,0
6/3/2004 11:00,26.4,0,35.2,0,25.9,0,25.2,0,21.8,0,23.6,0,31.8,0
6/3/2004 11:15,26.5,0,35.3,0,25.9,0,25.3,0,21.8,0,23.6,0,31.5,0
6/3/2004 11:30,26.5,0,35.5,0,25.9,0,25.4,0,21.8,0,23.5,0,31.3,0
6/3/2004 11:45,26.7,0,37,0,25.9,0,25.5,0,21.5,0,23.5,0,31,0
6/3/2004 12:00,26.7,0,36.1,0,26,0,25.5,0,21.5,0,23.5,0,30.8,0
6/3/2004 12:15,26.8,0,36.9,0,26,0,25.6,0,21.5,0,23.6,0,31,0
6/3/2004 12:30,26.9,0,39.1,0,26,0,25.7,0,21.6,0,23.7,0,31.3,0
6/3/2004 12:45,27,0,40.4,0,26,0,25.7,0,21.5,0,23.8,0,31.5,0
6/3/2004 13:00,27.1,0,41.2,0,26.1,0,25.8,0,21.4,0,23.9,0,31.8,0
6/3/2004 13:15,27.1,0,41.6,0,26.1,0,25.9,0,21.5,0,23.8,0,30.8,0
6/3/2004 13:30,27.1,0,40.8,0,26.1,0,26,0,21.5,0,23.8,0,29.8,0
6/3/2004 13:45,27,0,38.4,0,26.1,0,26.1,0,21.6,0,23.7,0,28.8,0
6/3/2004 14:00,26.8,0,35.4,0,26.1,0,26.2,0,21.6,0,23.7,0,27.8,0
6/3/2004 14:15,26.9,0,38.4,0,26.1,0,26.3,0,21.7,0,23.5,0,28.8,0
6/3/2004 14:30,27,0,41.2,0,26.1,0,26.3,0,21.7,0,23.3,0,29.8,0
6/3/2004 14:45,27,0,40.7,0,26.2,0,26.4,0,21.7,0,23.1,0,30.8,0
6/3/2004 15:00,27.1,0,40.7,0,26.3,0,26.4,0,21.8,0,22.9,0,31.8,0
6/3/2004 15:15,27,0,39.8,0,26.3,0,26.4,0,21.7,0,23,0,30.8,0
6/3/2004 15:30,27.1,0,40.2,0,26.4,0,26.4,0,21.9,0,23.1,0,29.8,0
6/3/2004 15:45,27.1,0,40.8,0,26.5,0,26.5,0,21.9,0,23.2,0,28.8,0
6/3/2004 16:00,27.1,0,41.1,0,26.5,0,26.5,0,21.7,0,23.3,0,27.8,0
6/3/2004 16:15,27.2,0,40.7,0,26.6,0,26.5,0,21.7,0,23.1,0,30.5,0
6/3/2004 16:30,27.3,0,42.5,0,26.8,0,26.6,0,21.8,0,22.8,0,33.3,0
6/3/2004 16:45,27.3,0,43.1,0,26.9,0,26.6,0,21.8,0,22.6,0,36,0
6/3/2004 17:00,27.3,0,44.1,0,27,0,26.7,0,21.9,0,22.4,0,38.8,0
6/3/2004 17:15,27.4,0,45.6,0,27.1,0,26.7,0,22,0,22.2,0,40,0
6/3/2004 17:30,27.4,0,45.5,0,27.2,0,26.8,0,22,0,21.9,0,41.3,0
6/3/2004 17:45,27.3,0,46.2,0,27.2,0,26.8,0,21.8,0,21.7,0,42.5,0
6/3/2004 18:00,27.3,0,47.7,0,27.2,0,26.8,0,21.9,0,21.5,0,43.8,0
6/3/2004 18:15,27.4,0,48.3,0,27.2,0,26.9,0,21.9,0,21.2,0,44.8,0
6/3/2004 18:30,27.2,0,48.4,0,27.2,0,26.9,0,21.7,0,20.8,0,45.8,0
6/3/2004 18:45,27.2,0,50.8,0,27.2,0,26.9,0,21.8,0,20.5,0,46.8,0
6/3/2004 19:00,27.3,0,50.5,0,27.2,0,26.9,0,21.7,0,20.2,0,47.8,0
6/3/2004 19:15,27.4,0,52.9,0,27.1,0,26.8,0,21.8,0,20,0,48.3,0
6/3/2004 19:30,26.8,0,48,0,27,0,26.8,0,21.9,0,19.8,0,48.8,0
6/3/2004 19:45,26.8,0,48.7,0,26.9,0,26.7,0,21.9,0,19.7,0,49.3,0
6/3/2004 20:00,27,0,53.2,0,26.9,0,26.7,0,21.8,0,19.5,0,49.8,0
6/3/2004 20:15,27.1,0,52.8,0,26.8,0,26.6,0,21.8,0,19.3,0,50.5,0
6/3/2004 20:30,27,0,55.2,0,26.7,0,26.5,0,21.9,0,19.1,0,51.3,0
6/3/2004 20:45,27,0,55.1,0,26.5,0,26.4,0,21.9,0,19,0,52,0
6/3/2004 21:00,26.9,0,54.9,0,26.5,0,26.3,0,22,0,18.8,0,52.8,0
6/3/2004 21:15,26.6,0,51.9,0,26.5,0,26.3,0,21.7,0,18.5,0,53.5,0
6/3/2004 21:30,26.5,0,52.2,0,26.5,0,26.2,0,21.7,0,18.2,0,54.3,0
6/3/2004 21:45,26.2,0,52.2,0,26.4,0,26.1,0,21.8,0,18,0,55,0
6/3/2004 22:00,26.1,0,51.7,0,26.4,0,26,0,21.8,0,17.7,0,55.8,0
6/3/2004 22:15,26.1,0,51.4,0,26.3,0,25.9,0,21.6,0,17.7,0,54.8,0
6/3/2004 22:30,26,0,51.5,0,26.3,0,25.8,0,21.6,0,17.6,0,53.8,0
6/3/2004 22:45,26.1,0,52.6,0,26.2,0,25.7,0,21.7,0,17.6,0,52.8,0
6/3/2004 23:00,26.1,0,54.7,0,26.1,0,25.6,0,21.6,0,17.6,0,51.8,0
6/3/2004 23:15,26,0,53.5,0,26,0,25.4,0,21.6,0,17.3,0,54.8,0
6/3/2004 23:30,26,0,53.8,0,25.9,0,25.3,0,21.6,0,17,0,57.8,0
6/3/2004 23:45,26.1,0,55.5,0,25.8,0,25.2,0,21.6,0,16.8,0,60.8,0
6/4/2004 0:00,26.1,0,57.8,0,25.6,0,25.1,0,21.6,0,16.5,0,63.8,0
6/4/2004 0:15,26.1,0,57.7,0,25.5,0,25,0,21.6,0,16.4,0,64.1,0
6/4/2004 0:30,26.1,0,59.8,0,25.4,0,24.9,0,21.7,0,16.2,0,64.3,0
6/4/2004 0:45,25.9,0,57.7,0,25.3,0,24.8,0,21.6,0,16.1,0,64.6,0
6/4/2004 1:00,25.9,0,57.9,0,25.2,0,24.7,0,21.6,0,16,0,64.8,0
6/4/2004 1:15,25.9,0,58,0,25.1,0,24.6,0,21.6,0,15.8,0,66.1,0
6/4/2004 1:30,25.7,0,56.7,0,25,0,24.6,0,21.4,0,15.7,0,67.3,0
6/4/2004 1:45,25.4,0,56.5,0,24.9,0,24.5,0,21.4,0,15.5,0,68.6,0
6/4/2004 2:00,25.2,0,56.4,0,24.9,0,24.4,0,21.4,0,15.4,0,69.8,0
6/4/2004 2:15,25.1,0,56.3,0,24.8,0,24.3,0,21.4,0,15.1,0,70.1,0
6/4/2004 2:30,24.9,0,56.3,0,24.8,0,24.2,0,21.4,0,14.9,0,70.3,0
6/4/2004 2:45,24.7,0,56.2,0,24.7,0,24.1,0,21.4,0,14.6,0,70.6,0
6/4/2004 3:00,24.6,0,56.2,0,24.7,0,24,0,21.4,0,14.4,0,70.8,0
6/4/2004 3:15,24.5,0,56.3,0,24.6,0,24,0,21.4,0,14.4,0,70.6,0
6/4/2004 3:30,24.4,0,56.3,0,24.6,0,23.9,0,21.4,0,14.4,0,70.3,0
6/4/2004 3:45,24.2,0,56.3,0,24.6,0,23.8,0,21.4,0,14.4,0,70.1,0
6/4/2004 4:00,24.1,0,56.4,0,24.5,0,23.7,0,21.4,0,14.4,0,69.8,0
6/4/2004 4:15,24,0,56.4,0,24.4,0,23.6,0,21.4,0,14.5,0,70.3,0
6/4/2004 4:30,23.9,0,56.4,0,24.4,0,23.5,0,21.3,0,14.6,0,70.8,0
6/4/2004 4:45,23.7,0,56.4,0,24.3,0,23.4,0,21.3,0,14.7,0,71.3,0
6/4/2004 5:00,23.6,0,56.5,0,24.2,0,23.3,0,21.3,0,14.8,0,71.8,0
6/4/2004 5:15,23.5,0,56.7,0,24.2,0,23.2,0,20.7,0,15.3,0,69.1,0
6/4/2004 5:30,23.4,0,56.9,0,24.2,0,23.1,0,20.7,0,15.8,0,66.3,0
6/4/2004 5:45,23.3,0,57,0,24.2,0,23.1,0,20.7,0,16.3,0,63.6,0
6/4/2004 6:00,24.1,0,57.9,0,24.3,0,23.1,0,20.7,0,16.8,0,60.8,0
6/4/2004 6:15,24.4,0,59.1,0,24.4,0,23.1,0,20.7,0,17.2,0,59.8,0
6/4/2004 6:30,24.7,0,59.4,0,24.8,0,23.1,0,20.5,0,17.5,0,58.8,0
6/4/2004 6:45,25.4,0,56.6,0,25.2,0,23.1,0,20.5,0,17.9,0,57.8,0
6/4/2004 7:00,25.8,0,51.6,0,25.5,0,23.2,0,20.6,0,18.3,0,56.8,0
6/4/2004 7:15,26,0,49.6,0,25.9,0,23.2,0,20.9,0,18.7,0,56.3,0
6/4/2004 7:30,25.9,0,49.9,0,26.1,0,23.5,0,21.2,0,19.1,0,55.8,0
6/4/2004 7:45,26.3,0,50.9,0,26.3,0,23.7,0,21.2,0,19.6,0,55.3,0
6/4/2004 8:00,26.5,0,51.9,0,26.5,0,23.9,0,21.2,0,20,0,54.8,0
6/4/2004 8:15,26.8,0,51.7,0,26.7,0,24.2,0,21.2,0,20.4,0,53.8,0
6/4/2004 8:30,26.9,0,49.7,0,26.9,0,24.4,0,21.2,0,20.8,0,52.8,0
6/4/2004 8:45,26.9,0,45,0,26.9,0,24.5,0,21.3,0,21.2,0,51.8,0
6/4/2004 9:00,26.5,0,46.4,0,26.9,0,24.6,0,21.5,0,21.6,0,50.8,0
6/4/2004 9:15,26.4,0,46.9,0,26.9,0,24.7,0,21.5,0,22,0,50,0
6/4/2004 9:30,26.7,0,46.3,0,26.9,0,24.8,0,21.5,0,22.4,0,49.3,0
6/4/2004 9:45,26.9,0,44.4,0,26.9,0,24.9,0,21.5,0,22.8,0,48.5,0
6/4/2004 10:00,26.9,0,44.1,0,26.9,0,25,0,21.3,0,23.2,0,47.8,0
6/4/2004 10:15,27,0,42.3,0,26.9,0,25.1,0,21.4,0,23.9,0,42.8,0
6/4/2004 10:30,27,0,34.5,0,26.9,0,25.3,0,21.4,0,24.6,0,37.8,0
6/4/2004 10:45,26.9,0,31.3,0,26.9,0,25.4,0,21.3,0,25.3,0,32.8,0
6/4/2004 11:00,26.8,0,31,0,26.8,0,25.5,0,21.2,0,26,0,27.8,0
6/4/2004 11:15,26.8,0,31,0,26.8,0,25.6,0,21.3,0,26.2,0,28,0
6/4/2004 11:30,27.1,0,33.3,0,26.9,0,25.6,0,21.3,0,26.4,0,28.3,0
6/4/2004 11:45,27.1,0,31.1,0,26.8,0,25.7,0,21.2,0,26.6,0,28.5,0
6/4/2004 12:00,27.2,0,32.6,0,26.8,0,25.8,0,21,0,26.8,0,28.8,0
6/4/2004 12:15,27.2,0,33.1,0,26.9,0,25.9,0,21.1,0,26.8,0,27.3,0
6/4/2004 12:30,27.3,0,33.2,0,27,0,26,0,21.1,0,26.9,0,25.8,0
6/4/2004 12:45,27.3,0,31.9,0,27,0,26.1,0,21.2,0,26.9,0,24.3,0
6/4/2004 13:00,27.3,0,32.7,0,27,0,26.3,0,21.1,0,27,0,22.8,0
6/4/2004 13:15,27.4,0,31.5,0,27.1,0,26.5,0,21.5,0,27,0,22.8,0
6/4/2004 13:30,27.5,0,31.5,0,27.1,0,26.7,0,21.5,0,27,0,22.8,0
6/4/2004 13:45,27.5,0,31.7,0,27.2,0,26.9,0,21.5,0,27,0,22.8,0
6/4/2004 14:00,27.6,0,32.1,0,27.3,0,27,0,21.5,0,27,0,22.8,0
6/4/2004 14:15,27.6,0,33.6,0,27.3,0,27.1,0,21.4,0,26.8,0,22.5,0
6/4/2004 14:30,27.7,0,33.5,0,27.4,0,27.1,0,21.5,0,26.6,0,22.3,0
6/4/2004 14:45,27.7,0,32.7,0,27.4,0,27.2,0,21.5,0,26.4,0,22,0
6/4/2004 15:00,27.7,0,31,0,27.5,0,27.2,0,21.5,0,26.2,0,21.8,0
6/4/2004 15:15,27.7,0,29.3,0,27.6,0,27.2,0,21.6,0,26.1,0,21.5,0
6/4/2004 15:30,27.8,0,29.5,0,27.7,0,27.3,0,21.6,0,26,0,21.3,0
6/4/2004 15:45,27.7,0,28.1,0,27.8,0,27.3,0,21.6,0,25.9,0,21,0
6/4/2004 16:00,27.7,0,27.6,0,27.9,0,27.4,0,21.6,0,25.8,0,20.8,0
6/4/2004 16:15,27.7,0,29.5,0,27.9,0,27.5,0,21.5,0,25.5,0,21.8,0
6/4/2004 16:30,27.5,0,26.8,0,28,0,27.5,0,21.5,0,25.1,0,22.8,0
6/4/2004 16:45,27.6,0,27.6,0,28,0,27.6,0,21.4,0,24.8,0,23.8,0
6/4/2004 17:00,27.5,0,28.3,0,28.1,0,27.7,0,21.5,0,24.5,0,24.8,0
6/4/2004 17:15,27.4,0,27,0,28.1,0,27.7,0,21.6,0,24.2,0,26,0
6/4/2004 17:30,27.3,0,28.2,0,28.2,0,27.8,0,21.7,0,24,0,27.3,0
6/4/2004 17:45,27.3,0,29.1,0,28.2,0,27.8,0,21.9,0,23.7,0,28.5,0
6/4/2004 18:00,27.1,0,28.5,0,28.2,0,27.8,0,22,0,23.5,0,29.8,0
6/4/2004 18:15,27.2,0,31.3,0,28.2,0,27.8,0,22,0,23.1,0,32.3,0
6/4/2004 18:30,27.2,0,34.8,0,28.1,0,27.8,0,21.7,0,22.7,0,34.8,0
6/4/2004 18:45,27.2,0,36.9,0,28,0,27.8,0,21.7,0,22.3,0,37.3,0
6/4/2004 19:00,27.5,0,45.8,0,28,0,27.8,0,21.8,0,21.9,0,39.8,0
6/4/2004 19:15,27.6,0,47.4,0,27.9,0,27.7,0,21.9,0,21.7,0,43.5,0
6/4/2004 19:30,27.4,0,41.2,0,27.9,0,27.7,0,21.7,0,21.4,0,47.3,0
6/4/2004 19:45,27.6,0,45.9,0,27.9,0,27.7,0,21.8,0,21.2,0,51,0
6/4/2004 20:00,27.6,0,45.4,0,27.8,0,27.6,0,21.8,0,21,0,54.8,0
6/4/2004 20:15,27.3,0,42.6,0,27.7,0,27.5,0,21.9,0,20.9,0,56.3,0
6/4/2004 20:30,27.3,0,43.9,0,27.6,0,27.5,0,21.7,0,20.9,0,57.8,0
6/4/2004 20:45,27.3,0,45.1,0,27.6,0,27.4,0,21.8,0,20.8,0,59.3,0
6/4/2004 21:00,27.3,0,45.4,0,27.5,0,27.3,0,21.9,0,20.8,0,60.8,0
6/4/2004 21:15,27.2,0,45.2,0,27.4,0,27.2,0,21.9,0,20.6,0,61.5,0
6/4/2004 21:30,27.2,0,45.4,0,27.4,0,27.2,0,21.8,0,20.3,0,62.3,0
6/4/2004 21:45,27.1,0,49.2,0,27.2,0,27.1,0,21.8,0,20.1,0,63,0